Dewpoint
50 50 51 51 51 50 50 50 49 48 47 46 47 48 49 52 53 51 52 52 51 49 46 44 44 37 24 10 11 18 25 29 36 44 41 38 34 33 32 34 31 29 28 28 27 26 25
50 50 50 51 51 50 50 49 49 48 47 46 46 47 47 50 52 52 51 49 47 48 38 40 39 33 21 11 17 20 27 33 37 41 40 37 33 35 34 32 32 30 28 27 27 26 24
49 49 50 50 50 50 49 49 48 47 46 46 46 47 45 48 50 49 48 47 43 45 47 40 30 15 9 12 17 23 29 30 31 36 34 39 40 35 33 32 31 29 27 25 23 22 23
49 49 50 50 50 50 49 49 48 47 46 46 46 46 44 45 45 48 47 38 35 33 26 29 42 19 8 12 18 21 25 28 27 27 25 26 34 33 32 31 29 26 24 22 19 17 19
49 48 49 49 49 49 49 48 48 47 46 46 45 45 43 45 45 44 43 33 29 30 27 21 21 14 5 13 15 18 19 22 29 26 22 23 29 31 33 30 28 28 23 23 15 8 12
49 48 48 49 49 49 48 48 47 47 46 46 45 43 43 44 41 44 39 28 31 29 24 8 7 9 7 6 14 18 17 19 25 30 26 20 19 23 27 24 17 19 20 12 13 8 2
49 48 48 48 48 48 48 47 47 46 46 45 44 42 42 43 40 35 29 25 28 17 12 9 7 5 7 11 17 16 15 16 22 15 12 11 9 7 8 10 8 8 4 1 4 6 1
49 48 48 48 48 48 47 47 46 46 45 45 44 43 38 40 37 30 29 21 23 24 10 9 8 9 10 12 9 14 14 19 20 10 6 3 4 3 2 0 1 6 5 0 -1 1 -0
51 49 48 48 48 48 47 46 46 45 44 44 42 42 38 31 29 30 28 28 28 27 14 10 9 10 12 12 11 13 13 12 8 4 4 1 -1 -6 -5 -5 -2 -1 5 -2 -0 1 0
52 50 49 48 48 48 47 46 46 45 44 44 39 43 40 38 26 27 27 30 34 36 12 10 9 11 12 10 10 12 13 8 7 3 4 5 4 -8 -7 -3 2 -5 -0 0 -0 -1 2
54 52 50 49 49 48 47 46 45 44 43 43 37 35 32 31 22 21 31 32 38 36 14 9 9 11 11 11 12 11 12 8 3 3 -1 5 3 -6 -6 -2 2 2 3 2 3 1 1
55 54 52 50 49 48 47 46 45 44 42 43 39 35 32 25 31 31 32 37 38 23 15 10 7 7 5 7 9 9 6 7 2 -0 2 2 2 -3 -1 1 1 7 4 3 5 4 3
56 55 54 52 50 49 48 46 45 44 42 42 35 32 24 27 32 35 38 37 17 12 9 9 7 6 2 5 7 5 2 -1 -3 -8 -4 1 -0 3 3 -0 5 6 2 2 -1 4 1
57 56 55 53 51 50 48 46 45 44 42 41 33 28 32 33 39 39 37 24 15 11 7 9 7 6 3 4 4 7 4 -0 -2 4 4 -2 -3 1 1 0 1 3 3 8 4 3 4
58 57 55 54 52 51 49 47 45 44 42 42 27 24 26 29 35 35 29 12 16 5 9 7 6 4 3 5 4 6 5 -1 -0 5 -1 -1 0 5 3 4 6 1 1 8 3 4 -6
58 58 56 55 52 51 49 47 45 43 44 38 25 22 23 30 33 33 22 17 7 10 7 7 -1 2 -3 4 -4 4 0 3 3 6 10 11 3 4 6 6 5 9 7 -5 -2 -20 -4
53 57 57 55 53 52 51 47 45 43 44 37 20 19 26 30 28 26 16 17 9 12 9 6 2 -2 -2 2 -0 2 -2 7 9 7 5 2 5 3 6 4 -0 1 7 8 10 7 -3
51 54 56 56 54 53 51 49 45 42 44 31 22 31 25 26 19 21 17 13 14 14 13 11 7 5 4 -1 4 -2 -3 8 8 7 -0 4 8 2 3 3 4 4 4 4 -10 -5 4
49 51 53 56 54 52 51 49 45 43 36 29 25 23 26 22 19 13 13 12 13 14 14 11 10 7 8 4 11 6 3 11 9 7 4 7 -1 -5 -1 7 5 3 5 10 8 5 3
48 50 52 53 54 52 51 48 45 43 37 33 26 26 18 21 16 16 21 17 14 16 15 14 11 10 7 5 6 9 7 11 12 9 16 15 15 9 -0 5 5 1 1 5 9 3 -4
47 50 52 55 55 53 50 47 45 41 42 37 34 34 21 21 16 17 23 26 15 15 17 15 13 12 10 9 7 6 11 9 11 13 15 17 1 4 4 6 6 8 6 3 8 6 -5
46 48 52 56 54 52 49 47 43 43 42 35 33 33 26 28 18 18 21 24 21 19 18 15 16 13 13 11 10 10 11 10 10 10 13 14 11 4 -2 3 7 4 5 7 7 6 6
45 48 51 55 54 52 49 47 44 45 38 34 35 34 34 31 26 27 25 23 28 20 19 20 18 17 14 17 17 16 16 15 16 9 12 10 9 2 -4 -3 -7 -11 -3 1 -1 3 6
44 45 47 54 53 51 49 46 44 42 38 37 35 35 33 31 29 27 30 30 28 29 27 22 22 22 15 15 14 13 13 13 11 11 14 12 10 9 5 -7 -13 -6 1 -0 -0 0 5
43 44 46 48 52 50 48 46 45 42 38 36 34 35 34 31 28 28 29 29 27 23 23 20 17 12 11 21 16 13 9 8 5 4 6 8 9 3 -5 -4 -4 -1 -2 -9 -9 -7 -2
43 43 44 46 48 51 49 47 45 43 40 35 34 38 35 31 29 29 29 28 23 21 19 17 18 11 19 19 17 11 9 6 5 4 -1 2 6 6 1 1 0 -4 -3 2 1 -21 -3
43 43 44 45 46 49 50 48 45 44 43 37 34 37 35 30 27 25 27 24 25 26 19 14 15 14 19 16 12 11 11 8 6 1 -2 -1 -1 2 4 4 5 2 -1 1 -13 -7 -1
44 43 44 44 45 47 50 49 46 45 44 37 31 33 34 31 22 22 22 25 24 26 18 16 15 15 14 12 13 13 13 12 6 5 -1 0 1 0 1 2 0 1 -6 -10 -5 -0 -1
44 43 44 44 45 46 47 50 48 46 45 35 29 31 30 28 19 19 18 18 20 20 21 18 20 15 15 15 16 17 15 11 6 7 5 4 9 7 7 5 1 3 0 0 -0 -1 -1
Wind_Speed
2 2 3 4 5 6 8 9 10 10 10 11 11 11 11 10 11 12 13 13 11 7 5 5 7 9 8 6 5 14 17 12 8 5 2 3 7 1 7 9 14 16 10 15 16 19 17
1 1 2 3 4 5 7 8 9 10 10 10 10 10 10 8 8 8 8 9 8 7 7 6 7 9 4 3 8 13 9 9 8 2 2 4 3 3 7 9 2 14 18 15 10 10 13
2 2 1 2 4 5 6 7 9 10 10 10 10 10 9 7 5 7 7 5 6 4 5 6 11 4 18 3 9 12 5 8 10 9 8 10 8 4 8 15 17 21 15 12 9 8 5
4 3 3 2 2 4 5 7 8 9 10 10 10 9 8 6 3 3 4 4 5 4 6 7 8 5 5 0 5 13 14 8 9 9 7 10 7 9 7 19 13 10 11 8 6 7 5
6 4 3 2 1 2 3 5 7 8 9 10 10 9 8 6 3 1 2 2 4 7 9 7 4 4 4 2 3 9 9 4 4 7 5 6 5 5 10 13 6 9 6 9 6 2 6
8 6 5 4 2 0 2 3 5 7 8 9 10 9 6 5 3 2 4 3 7 6 7 3 2 1 3 3 4 7 7 9 2 4 4 2 3 6 11 10 4 4 7 2 8 7 7
10 8 6 5 4 2 0 2 5 7 8 9 9 9 5 5 2 3 5 9 2 2 11 6 6 5 5 2 1 7 6 9 2 2 3 1 4 4 9 6 2 3 4 7 8 5 3
12 11 9 8 6 4 2 1 3 5 7 8 9 8 4 4 2 3 6 3 2 1 3 4 5 6 4 3 1 14 16 1 3 3 2 3 6 7 6 2 3 4 5 2 5 3 4
13 12 11 9 8 6 4 1 1 3 4 6 7 6 2 5 3 2 4 3 2 5 4 4 2 4 2 5 4 7 11 4 5 3 3 3 8 6 5 5 6 4 1 4 1 10 11
15 14 12 10 9 7 5 3 2 2 5 5 6 5 1 6 1 1 2 3 1 3 3 3 2 3 1 1 3 3 5 1 1 6 8 7 5 6 5 3 2 5 8 6 3 6 3
17 16 14 13 11 9 7 4 2 2 4 4 3 6 6 3 2 1 2 2 2 2 6 2 2 2 1 3 2 5 4 5 3 4 1 3 7 5 4 4 1 5 5 2 2 5 11
20 18 17 15 14 12 10 7 4 1 2 3 3 4 6 2 3 3 0 2 2 1 7 3 3 3 4 2 2 1 2 6 3 5 10 5 5 1 3 7 4 6 4 4 2 3 8
22 22 19 18 16 14 11 9 7 4 2 3 6 9 4 5 2 1 2 3 3 5 3 3 3 4 4 4 3 3 3 5 6 4 7 4 5 4 5 7 4 3 4 2 3 5 10
24 24 23 20 19 17 15 12 9 5 4 7 4 3 7 6 6 2 2 1 5 2 2 3 2 3 4 7 2 4 3 5 11 0 5 8 7 13 11 2 4 11 4 5 8 6 3
26 25 24 22 20 19 17 15 12 9 5 10 7 2 3 8 6 4 1 2 4 3 4 6 4 3 5 2 2 4 7 4 9 18 10 8 4 5 3 2 2 7 8 2 3 4 5
20 24 24 25 23 21 18 16 14 10 8 11 3 3 3 8 7 1 1 4 3 3 3 3 3 9 4 7 4 6 7 0 4 3 5 1 3 6 1 3 3 1 2 4 4 6 8
4 9 25 26 24 22 20 18 16 13 11 9 4 2 4 6 3 1 5 6 1 3 1 3 3 3 6 5 8 6 5 1 7 3 2 1 2 6 6 12 13 7 5 5 2 5 7
8 5 9 24 26 25 23 19 16 13 13 3 2 3 5 6 4 4 4 2 2 4 2 3 3 4 4 5 5 6 7 3 11 10 7 3 2 9 11 2 2 1 9 13 9 8 6
9 11 9 15 26 27 26 23 19 15 16 8 5 2 3 3 6 8 3 2 2 6 5 5 4 6 3 3 5 13 3 3 8 7 3 4 7 4 4 1 1 7 9 8 3 1 11
8 8 13 13 25 27 26 25 23 24 12 6 6 4 1 2 2 1 4 5 5 4 4 4 2 6 3 8 7 5 3 1 1 3 4 4 4 9 16 1 4 7 14 21 18 11 13
7 9 14 13 26 27 28 27 25 23 16 6 4 5 5 6 8 11 5 3 7 7 5 9 5 12 10 9 6 9 8 4 4 7 4 5 9 7 10 2 7 9 10 21 29 37 22
9 11 16 9 26 29 29 29 29 23 19 3 7 5 2 3 2 12 9 7 12 9 9 7 12 13 16 11 11 9 11 7 7 12 7 4 4 1 11 8 10 17 15 19 28 32 33
11 11 16 7 25 29 30 29 28 27 16 5 2 1 6 6 5 8 9 9 4 2 8 1 9 10 14 14 3 5 7 4 3 12 14 9 8 4 13 1 8 22 26 32 27 22 32
7 9 10 2 19 25 28 29 30 33 19 6 5 4 5 6 11 10 7 8 14 11 10 1 1 7 5 18 15 11 8 4 2 5 6 10 9 6 7 2 20 6 5 10 23 25 21
8 8 7 5 12 28 31 30 31 31 26 3 5 6 6 5 7 6 10 4 2 5 2 4 4 3 16 5 2 1 2 2 3 3 1 2 9 6 8 12 20 26 4 6 9 5 6
7 8 8 9 5 16 29 32 31 31 30 7 5 5 4 2 10 2 4 10 7 7 4 3 4 6 2 4 4 6 9 6 4 2 1 1 4 7 5 7 10 1 0 1 3 10 6
6 7 7 9 9 6 25 32 33 33 31 12 5 5 5 6 3 3 6 6 7 5 3 5 6 4 3 7 9 9 8 2 7 8 8 7 5 20 18 13 10 2 5 3 5 6 3
8 8 8 10 11 11 13 30 33 35 33 12 4 3 5 4 3 3 3 3 3 5 8 8 6 4 6 8 8 6 8 9 3 8 10 14 16 10 10 9 17 3 4 6 2 4 5
11 11 11 12 12 14 16 25 34 34 32 14 5 3 8 7 4 4 7 5 3 1 6 12 0 5 9 7 7 5 5 3 5 5 4 8 9 9 15 8 3 7 5 3 1 1 4
Wind_Direction
50 67 76 50 36 27 24 26 26 28 29 27 26 29 32 45 60 70 80 92 97 81 36 338 322 305 315 72 16 331 339 332 310 310 125 211 194 191 152 109 73 100 95 78 87 83 81
93 28 62 52 36 31 26 25 22 23 24 28 30 31 34 44 55 69 73 96 61 49 30 0 341 317 259 94 307 339 341 356 355 316 68 318 24 3 104 128 351 116 116 116 99 105 134
168 144 86 36 28 26 24 22 19 18 19 25 27 30 32 35 62 77 74 55 0 356 351 340 335 335 56 83 1 341 25 35 28 20 62 9 4 344 62 94 114 122 111 122 127 117 106
199 182 165 132 50 29 27 20 16 16 16 18 19 24 24 21 47 96 29 34 29 16 330 314 300 296 80 17 341 17 348 55 65 69 61 8 27 62 104 127 142 160 146 161 149 152 154
205 199 180 176 127 47 38 27 16 15 16 13 15 15 23 11 16 247 325 325 295 285 306 294 291 252 93 169 36 347 12 9 76 98 72 86 51 88 139 153 162 207 251 193 170 239 147
207 206 196 188 199 130 33 37 25 15 14 13 8 6 17 27 28 33 310 289 322 275 266 246 348 36 56 24 356 328 355 334 13 140 83 55 129 144 179 208 202 204 212 125 153 171 225
209 207 206 210 210 213 58 39 30 21 15 10 6 360 22 58 43 344 309 271 223 161 39 58 21 97 68 330 158 20 344 324 238 21 152 180 158 97 75 54 18 339 58 137 99 117 276
210 208 205 203 210 217 231 43 52 34 21 14 7 4 59 56 35 313 299 347 48 26 119 78 110 86 71 293 189 12 347 248 245 125 177 175 134 94 77 65 131 106 120 137 110 88 269
216 216 215 210 206 208 222 243 31 50 27 23 22 24 80 9 351 281 359 59 345 340 262 110 65 57 17 335 48 354 355 333 63 107 25 142 108 123 160 146 136 73 74 91 53 339 258
219 218 217 218 218 213 214 228 283 15 19 24 38 50 1 322 346 59 126 150 273 324 273 137 141 52 332 352 55 14 351 1 289 111 88 86 138 145 148 113 334 144 74 76 31 356 318
216 218 214 213 215 213 212 209 248 352 13 9 61 51 26 3 93 314 69 175 305 255 317 100 88 350 74 34 110 34 316 284 118 119 184 124 153 167 177 108 65 123 81 75 328 278 304
211 213 215 209 207 210 201 205 208 198 36 359 12 345 319 273 96 35 249 270 286 28 254 136 122 147 160 125 78 122 51 31 71 84 59 104 12 85 59 106 69 126 163 176 199 235 257
208 212 210 208 205 202 205 198 203 195 135 89 79 47 23 346 61 108 289 258 325 228 132 176 185 183 225 160 158 206 189 174 175 158 198 146 189 110 152 138 154 175 158 159 259 213 244
212 211 208 205 203 198 198 195 201 190 169 140 104 36 53 48 359 351 274 231 242 321 106 57 101 172 201 152 188 175 199 242 210 205 169 194 240 171 182 244 198 184 195 212 239 227 249
215 213 206 201 201 199 198 187 195 176 179 152 135 75 68 8 353 359 330 203 253 14 94 139 145 203 205 170 29 202 233 248 203 188 210 209 190 59 76 55 340 153 206 63 285 235 268
224 213 205 201 200 198 195 189 186 174 168 165 124 133 33 333 331 19 77 244 283 41 103 137 246 190 253 174 184 196 214 295 183 181 68 346 265 186 116 30 299 319 123 151 203 244 247
329 251 211 203 196 191 190 193 179 177 169 173 112 172 357 352 321 70 210 229 145 107 50 236 286 261 244 185 195 197 256 263 100 130 76 354 184 138 126 207 184 177 219 211 247 224 229
283 323 251 204 194 189 182 184 180 174 156 126 137 218 342 344 140 208 225 294 14 170 144 235 261 267 250 171 201 246 247 83 113 141 173 178 210 212 206 104 7 242 211 179 207 229 230
295 259 305 228 196 187 179 176 172 157 159 138 135 89 347 347 203 210 208 242 248 186 203 190 225 221 33 188 244 232 152 321 128 160 175 182 218 239 245 292 194 227 208 218 138 55 218
280 285 296 266 196 186 178 165 165 171 108 89 130 149 352 261 296 176 199 246 232 193 237 202 170 107 161 207 228 275 189 132 240 170 71 139 258 232 245 204 120 208 211 206 198 213 240
295 299 312 250 192 184 173 165 165 160 136 121 189 194 179 201 237 220 165 282 223 208 226 179 216 208 183 216 214 235 204 149 214 225 128 179 247 253 271 257 202 235 227 209 212 228 234
336 324 335 232 181 176 170 166 159 158 154 111 168 177 123 212 210 186 185 227 230 224 180 226 232 203 199 218 205 199 177 183 211 194 161 175 252 335 276 237 230 261 237 240 228 231 246
347 349 357 217 184 174 165 162 162 164 145 172 137 99 123 157 156 158 203 208 238 306 220 122 223 199 211 227 105 101 86 89 198 178 179 177 197 201 261 333 314 277 220 221 229 227 230
347 352 6 178 162 158 162 166 170 171 173 133 152 149 146 236 195 211 209 207 223 221 257 147 267 183 125 111 97 80 66 72 135 163 184 176 174 179 281 4 262 264 143 219 227 244 236
344 339 349 349 183 168 174 177 179 179 183 135 144 158 162 242 199 232 227 192 126 75 113 159 35 13 149 91 107 253 245 274 204 27 195 74 170 213 229 217 287 299 245 176 188 255 10
333 323 320 316 288 211 187 183 180 185 186 144 160 119 136 187 218 108 188 180 194 197 160 124 29 158 69 173 167 230 235 216 220 199 65 88 39 218 154 232 255 275 195 260 119 250 15
304 313 310 309 302 284 196 189 185 188 184 166 156 155 131 198 169 138 188 186 164 144 117 134 149 179 306 186 206 220 235 162 209 195 172 159 194 221 228 247 273 186 166 153 224 269 16
295 303 303 298 287 270 235 201 192 189 183 150 139 38 159 176 106 45 55 160 103 158 174 139 125 206 175 201 214 212 233 207 234 153 173 176 178 192 204 234 265 126 147 199 130 128 18
303 305 288 282 277 257 259 216 201 191 176 147 125 83 72 88 105 56 86 68 62 24 127 178 309 155 174 192 219 250 226 179 235 245 158 221 208 191 195 217 74 31 85 98 170 350 6